Regional Weather Roundup
Issued by NWS Goodland, KS

Home | Current Version | Previous Version | Graphics & Text | Print | Product List | Glossary On
Versions: 1 2 3 4 5 6 7 8 9 10 11 12 13 14 15 16 17 18 19 20 21 22 23 24 25 26 27 28 29 30 31 32 33 34 35 36 37 38 39 40 41 42 43 44 45 46 47 48 49 50
000
ASUS43 KGLD 291159
RWRGLD

GOODLAND FORECAST AREA HOURLY WEATHER ROUNDUP
NATIONAL WEATHER SERVICE GOODLAND KS
600 AM MDT MON MAY 29 2017

...OFFICIAL OBSERVATIONS...

CITY           SKY/WX    TMP DP  RH WIND       PRES   REMARKS
GOODLAND KS    CLEAR     49  46  90 NW10      30.16R
HILL CITY KS   CLEAR     51  48  89 W6        30.09S
IMPERIAL NEB   CLEAR     50  43  77 W9        30.15R
MCCOOK NEB     CLEAR     49  47  93 SW6       30.11R
AKRON CO       CLEAR     46  41  82 W10       30.22S
BURLINGTON CO  PTCLDY    50  44  80 NW6       30.19R
LIMON CO       PTCLDY    42  41  96 W6        30.25S
$$

...UNOFFICIAL OBSERVATIONS...

CITY           SKY/WX    TMP DP  RH WIND       PRES   REMARKS
LENORA KS        N/A     52  32  46 MISG        N/A
NORTON KS      CLEAR     54  45  71 W10       30.09S
SHARON SPRINGS   N/A     51  47  86 W5          N/A
TRENTON NEB      N/A     50  32  50 NW6         N/A
KIT CARSON CO    N/A     53  43  69 MISG        N/A
YUMA CO        FAIR      45  41  87 W9        30.20R
$$




USA.gov is the U.S. government's official web portal to all federal, state and local government web resources and services.